Location: NJAA Observatory
(40.6819°N, 74.8979°W)
Time: 23:34:58
(UTC-05:00)

Iridium 4 - Visible Passes

Search period start: 22 November 2014 00:00
Search period end: 02 December 2014 00:00
Orbit: 774 x 777 km, 86.4° (Epoch: 22 November)

Date Brightness Start Highest point End Pass type
(mag) Time Alt. Az. Time Alt. Az. Time Alt. Az.
22 Nov 8.4 05:31:36 10° NE 05:34:05 13° ENE 05:36:33 10° ESE visible
24 Nov 7.3 06:02:20 10° NNE 06:07:03 34° E 06:11:44 10° SE visible
24 Nov 7.3 18:58:02 10° S 18:59:23 18° S 18:59:23 18° S visible
25 Nov 8.2 05:29:07 10° NNE 05:32:43 19° ENE 05:36:18 10° ESE visible
25 Nov 6.8 18:24:30 10° SSE 18:26:42 23° SE 18:26:42 23° SE visible
25 Nov 8.0 20:05:54 10° SW 20:07:13 16° WSW 20:07:13 16° WSW visible
26 Nov 6.9 17:51:39 10° SE 17:54:05 19° ESE 17:54:05 19° ESE visible
26 Nov 6.8 19:30:50 10° SSW 19:34:37 38° WSW 19:34:37 38° WSW visible
27 Nov 6.7 06:00:33 10° N 06:05:34 47° E 06:10:33 10° SSE visible
27 Nov 7.3 17:20:28 10° E 17:21:33 11° ENE 17:21:33 11° ENE visible
27 Nov 5.5 18:56:26 10° S 19:01:37 82° W 19:02:05 73° NNW visible
28 Nov 7.7 05:27:01 10° NNE 05:31:19 26° ENE 05:35:36 10° SE visible
28 Nov 5.5 18:22:35 10° SSE 18:27:37 53° E 18:29:40 33° NNE visible
28 Nov 8.0 20:05:17 10° WSW 20:08:38 17° WNW 20:10:12 15° NW visible
29 Nov 8.4 04:54:15 10° NE 04:56:55 14° ENE 04:59:35 10° ESE visible
29 Nov 6.3 17:49:20 10° SE 17:53:43 29° E 17:57:21 14° NNE visible
29 Nov 7.2 19:29:43 10° SW 19:34:17 31° W 19:37:54 15° NNW visible
30 Nov 6.0 05:58:52 10° N 06:04:03 66° E 06:09:12 10° SSE visible
30 Nov 7.0 17:16:58 10° ESE 17:19:58 16° ENE 17:22:58 10° NE visible
30 Nov 6.0 18:54:58 10° SSW 19:00:05 58° W 19:05:13 10° N visible
01 Dec 7.1 05:25:06 10° NNE 05:29:52 35° E 05:34:36 10° SSE visible
01 Dec 5.4 18:20:50 10° S 18:26:00 75° E 18:31:12 10° N visible
01 Dec 8.4 20:05:14 10° W 20:07:17 12° WNW 20:09:20 10° NW visible
